Location: Mercogliano
(40.9167°N, 14.7333°E)
Time: 21:07:58
(UTC+00:00)

CZ-2C R/B - Pass Details

Date: 20 January 2021
Orbit: 785 x 870 km, 98.2° (Epoch: 06 March)

Event Time Altitude Azimuth Distance (km) Brightness Sun altitude
Rises 03:44:06 0° 109° (ESE) 3,284 6.9 -29.4°
Reaches altitude 10° 03:48:01 10° 79° (E) 2,374 5.9 -28.6°
Maximum altitude 03:49:51 12° 58° (ENE) 2,255 5.6 -28.3°
Drops below altitude 10° 03:51:42 10° 37° (NE) 2,395 5.4 -28.0°
Sets 03:55:41 0° 8° (N) 3,353 5.9 -27.2°
